Torna al catalogo

ARIANE 44L+ DEB

AttivoGTO
NORAD 22850·DEBRIS·🇫🇷 France

Lanciato Apr 15, 1992 da Guiana Space Centre

Loading…

TLE

In scadenzaSource: Space-Track

Epoca: Sep 14, 2026, 13:14 UTC

1 22850U 92021E   26257.55157079  .00000097  00000-0  13672-1 0  9998
2 22850   3.8529 265.1241 7042875 322.5796 264.9441  2.24879751274394

Traccia ARIANE 44L+ DEB in tempo reale con AllMySat

Download on the App Store